Hovedside
METAR-TAF:

METAR-TAF

Lufthavner :

Torsby, Sverige

breddegrad: 60-09-17N, lengdegrad: 12-59-40E, høyde over havet: 120 m

Gjeldene værobservasjon

Denne rapporten ble laget for 13 minutter siden, klokken 01:20 UTC
Vind 3 kt fra Nord, skiftende mellom Nord-nordvest og Nordøst
Temperatur 2°C
Luftfuktighet 80%
Trykk 1012 hPa
Sikt 10 km eller mer

METAR: ESST 110120Z AUTO 01003KT 340V040 9999 SCT045/// OVC051/// 02/M01 Q1012

Tid: 02:33 (01:33 UTC)


TAF: fraværende

Værobservasjoner og værvarsel for over 4000 flyplasser (METAR- og TAF-rapporter).

Tilgjengelige stasjoner er representert av de røde og gule prikkene på kartet.

Hold musepekeren over prikken for å se navnet på stasjonen.

Klikk så for å se værobservasjoner og -varsler.

For å forandre kartet kan du klikke på den grønne knappen med svart kryss for å zoome inn, på den grønne knappen med strek for å zoome ut, eller på de grønne pilene for å se tilstøtende kart.


METAR-TAF: